Regional Weather Roundup
Issued by NWS

Home | Current Version | Previous Version | Text Only | Print | Product List | Glossary On
Versions: 1 2 3 4 5 6 7 8 9 10 11 12 13 14 15 16 17 18 19 20 21 22 23 24 25 26 27 28 29 30 31 32 33 34 35 36 37 38 39 40 41 42 43 44 45 46 47 48 49 50
000
ASUS44 KFWD 010315
RWRTX
NORTH TEXAS HOURLY WEATHER ROUNDUP
NATIONAL WEATHER SERVICE FORT WORTH TX
1000 PM CDT FRI JUL 31 2015

NOTE: "FAIR" INDICATES FEW OR NO CLOUDS BELOW 12,000 FEET WITH NO
SIGNIFICANT WEATHER AND/OR OBSTRUCTIONS TO VISIBILITY.

TXZ118-119-010400-
DALLAS/FORT WORTH METROPLEX

CITY           SKY/WX    TMP DP  RH WIND       PRES   REMARKS
DFW AIRPORT    CLOUDY    89  63  41 E6        30.02F HX  90
DALLAS LOVE    CLOUDY    91  59  33 E8        30.02S HX  90
FTW MEACHAM    CLOUDY    82  69  64 N3        30.02F
DAL-EXECUTIVE  CLOUDY    88  61  40 E7        30.03S
FTW-ALLIANCE   CLOUDY    81  69  67 N3        30.03F
FTW-NAS-JRB    CLOUDY    83  71  67 NE8       30.03F
FTW-SPINKS     CLOUDY    84  68  59 CALM      30.04F
ARLINGTON      CLOUDY    91  62  37 E7        30.02F HX  91
GRAND PRAIRIE  CLOUDY    88  66  47 E5        30.04F HX  90
ADDISON        MOCLDY    90  61  37 E6        30.05R
MESQUITE       MOCLDY    85  55  36 CALM      30.04R
LANCASTER      MOCLDY    84  60  44 NE3       30.04S
$$

TXZ091>094-102>105-117-120-121-131>134-010400-
NORTH CENTRAL TEXAS

CITY           SKY/WX    TMP DP  RH WIND       PRES   REMARKS
SHRMAN/DENISON CLOUDY    82  69  66 E5        30.06F
GAINESVILLE    CLOUDY    82  69  65 CALM      30.07S
BOWIE          CLOUDY    76  70  80 CALM      30.05F
DECATUR        CLOUDY    77  68  73 E3        30.05F
DENTON         CLOUDY    81  70  69 N5        30.03F
MCKINNEY       CLOUDY    85  62  46 E3        30.04R
GREENVILLE     MOCLDY    81  57  44 CALM      30.06R
ROCKWALL       CLOUDY    82  60  47 E6        30.03S
TERRELL        MOCLDY    82  63  52 NE5       30.04R
WAXAHACHIE     MOCLDY    83  67  60 NE3       30.05S
CLEBURNE         N/A     82  73  74 W3        30.06F
GRANBURY       CLOUDY    77  72  86 CALM      30.05F
$$

TXZ083>090-098>101-113>116-127>130-139>142-154-155-010400-
WESTERN NORTH TEXAS

CITY           SKY/WX    TMP DP  RH WIND       PRES   REMARKS
WICHITA FALLS  CLOUDY    75  70  84 SE9       30.05R
WF-KICKAPOO    CLOUDY    76  71  85 E5        30.07S
VERNON         CLOUDY    77  67  70 SE6       30.08S
ABILENE        CLEAR     80  68  66 E17G25    30.09R
ABILENE-DYESS  PTCLDY    80  69  70 E14       30.08R
BRECKENRIDGE   CLOUDY    77  68  72 E6        30.07R
GRAHAM         CLOUDY    74  73  95 NE3       30.03F
MINERAL WELLS  CLOUDY    75  72  90 SE5       30.03F
STEPHENVILLE   CLOUDY    74  69  82 CALM      30.08F
COMANCHE       MOCLDY    75  67  76 SE3       30.07F
BROWNWOOD      CLOUDY    79  66  65 E15G24    30.07R
COLEMAN        CLEAR     80  66  62 NE13      30.08R
BRADY          MOCLDY    86  68  54 SE8       30.07R
$$

TXZ143>147-156>162-174-175-010400-
CENTRAL TEXAS

CITY           SKY/WX    TMP DP  RH WIND       PRES   REMARKS
WACO           PTCLDY    83  66  56 NE6       30.02R
WACO-TSTC      CLEAR     82  68  61 CALM      30.03R
WACO-MCGREGOR  CLEAR     88  64  45 NE7       30.04R
HILLSBORO      MOCLDY    85  62  45 NE3       30.04R
CORSICANA      CLEAR     86  62  44 E5        30.04R
MEXIA          CLEAR     83  63  51 NE9       30.02R
HEARNE         CLEAR     83  64  53 CALM      30.00R
CAMERON        CLEAR     86  68  54 CALM      30.00R
TEMPLE         PTCLDY    86  66  51 NE7       30.02R
KILLEEN        CLEAR     89  70  52 NE10      30.03R HX  94
KILLEEN-SKYLRK PTCLDY    88  68  51 NE7       30.02R HX  91
FORT HOOD      PTCLDY    88  69  53 NE7       30.02R HX  93
GATESVILLE     PTCLDY    84  70  61 NE8       30.07R
HAMILTON       MOCLDY    82  67  59 NE8       30.07S
LAMPASAS       PTCLDY    91  72  53 NE10      30.04R HX  97
$$

TXZ095>097-106>112-122>126-135>138-148>153-164>167-010400-
EAST TEXAS

CITY           SKY/WX    TMP DP  RH WIND       PRES   REMARKS
PARIS          MOCLDY    81  57  44 E7        30.06R
SULPHUR SPRNGS MOCLDY    83  61  47 CALM      30.07R
MOUNT PLEASANT PTCLDY    82  60  46 CALM      30.05R
GILMER         MOCLDY    80  62  54 CALM      30.03S
MINEOLA        MOCLDY    82  63  51 CALM      30.05R
TYLER          CLEAR     85  59  41 NE5       30.04R
LONGVIEW       PTCLDY    83  62  49 NE3       30.02R
MARSHALL       CLEAR     78  66  66 CALM      30.05R
ATHENS         PTCLDY    81  61  50 CALM      30.02R
PALESTINE      CLEAR     84  57  39 NE5       30.03R
JACKSONVILLE   CLEAR     83  56  40 E5        30.06R
HENDERSON      CLEAR     77  62  59 CALM      30.04R
CENTER         FAIR      78  68  71 CALM      30.01R
NACOGDOCHES    CLEAR     77  63  61 NE3       30.01R
LUFKIN         CLEAR     78  64  61 NE3       30.00R
$$

SUPPLEMENTAL OBSERVATIONS (CENTRAL)

CITY           SKY/WX    TMP DP  RH WIND       PRES   REMARKS
LAKE TEXOMA      N/A     82  68  61 SE1         N/A
CADDO GRASSLND   N/A     75  64  69 E1          N/A
PAT MAYSE LAKE   N/A     81  66  61 CALM        N/A
GREENVILLE       N/A     84  55  37 E6          N/A
CEDAR HILL       N/A     84  63  48 E1          N/A
ATHENS           N/A     82  57  42 NE1         N/A
LAKE LIMESTONE   N/A     82  59  44 NE3         N/A
MCGREGOR         N/A     86  66  51 NE5         N/A
TEMPLE           N/A     88  66  48 NE8         N/A  HX  90
$$

SUPPLEMENTAL OBSERVATIONS (WEST)

CITY           SKY/WX    TMP DP  RH WIND       PRES   REMARKS
POSSUM KINGDOM   N/A     75  66  73 SE7         N/A
LBJ GRASSLAND    N/A     79  68  69 NE1         N/A
GRANBURY         N/A     75  72  88 NE1G9       N/A
COMANCHE         N/A     73  63  68 E3G20       N/A
HAMBY            N/A     79  68  69 E14G22      N/A
COLORADO BEND    N/A     90  68  48 SE7         N/A  HX  93
$$

SUPPLEMENTAL OBSERVATIONS (EAST)

CITY           SKY/WX    TMP DP  RH WIND       PRES   REMARKS
CLARKSVILLE      N/A     81  59  47 CALM        N/A
TEXARKANA        N/A     72  68  88 CALM        N/A
LINDEN           N/A     75  63  64 CALM        N/A
CADDO LAKE       N/A     72  68  88 CALM        N/A
GILMER           N/A     81  64  57 CALM        N/A
HENDERSON        N/A     79  61  53 CALM        N/A
LUFKIN           N/A     75  66  73 MISG        N/A
N SABINE NF      N/A     73  64  73 MISG        N/A
S SABINE NF      N/A     75  63  64 CALM        N/A
$$

SUPPLEMENTAL OBSERVATIONS ARE A COLLECTION OF AUTOMATED INSTRUMENTS
THAT ARE MAINTAINED BY A VARIETY OF FEDERAL AND STATE AGENCIES.
CERTAIN ELEMENTS...SUCH AS HUMIDITY VALUES AND SUSTAINED WIND
SPEEDS...MAY BE APPROXIMATED.




USA.gov is the U.S. government's official web portal to all federal, state and local government web resources and services.